Simultaneous Nadir Overpasses (SNOs) Predictions

Prediction of SNOs between TERRA and METOP-C Satellite Orbit:

Table of predicted SNOs for the next 14.0 days since TLE Epoch: 3/14/2020
Index Date (TERRA) Time (TERRA) Lat,Lon (TERRA) SZA (TERRA ) Date (METOP-C) Time (METOP-C) Lat,Lon (METOP-C) SZA (METOP-C ) Distance(km) Time Diff (sec)
1 03/16/2020 17:24:01 -81.28, 146.06 94.85 03/16/2020 17:23:04 -81.29, 146.11 94.87 1.00 57
2 03/16/2020 18:13:27 81.29, -46.24 85.15 03/16/2020 18:13:44 81.29, -46.17 85.17 1.37 17
3 03/19/2020 12:58:15 -81.29,-147.44 95.93 03/19/2020 12:57:27 -81.29,-147.27 95.92 2.93 48
4 03/19/2020 13:47:41 81.29, 20.23 84.07 03/19/2020 13:48:08 81.29, 20.08 84.07 2.64 27
5 03/22/2020 08:32:29 -81.29, -80.97 97.00 03/22/2020 08:31:51 -81.29, -81.05 97.03 1.38 38
6 03/22/2020 09:21:55 81.29, 86.67 82.99 03/22/2020 09:22:31 81.29, 86.71 83.01 1.03 36
7 03/25/2020 04:06:42 -81.29, -14.51 98.08 03/25/2020 04:06:13 -81.29, -14.44 98.08 1.33 29
8 03/25/2020 04:56:07 81.31, 153.48 81.96 03/25/2020 04:56:53 81.30, 153.33 81.96 2.70 46
9 03/27/2020 23:40:56 -81.29, 51.91 99.16 03/27/2020 23:40:37 -81.29, 51.77 99.18 2.46 19




NCC Satellite Simultaneous Nadir Overpasses (SNOs) Prediction Service
